When you browse on this site, cookies collect data to enhance your experience and personalize the content and advertising you see.
Visit our Privacy Policy to learn more. By continuing to use the site, you agree to this use of cookies and data.
  • In Portugal
  • List of Countries
  • For 7 days
  • Water Temperature
  • Satellite Maps
  • Weather Map
  • Weather Widgets
  • user-avatar
    Login

    Hourly Weather Szekesfehervar

    Today, 18 July, Thursday

    Time Temperature Precipitation Wind Pressure Humidity
    00:00 +19°C° 0.4 mm 1 mps 747 mmHg 76%
    01:00 +19°C° 0 mm 1 mps 747 mmHg 76%
    02:00 +19°C° 0.2 mm 1 mps 747 mmHg 78%
    03:00 +19°C° 0.2 mm 1 mps 747 mmHg 79%
    04:00 +17°C° 0.2 mm 0 mps 747 mmHg 80%
    05:00 +19°C° 0.1 mm 1 mps 747 mmHg 78%
    06:00 +20°C° 0.1 mm 1 mps 747 mmHg 76%
    07:00 +20°C° 0 mm 2 mps 748 mmHg 70%
    08:00 +22°C° 0.8 mm 1 mps 748 mmHg 69%
    09:00 +23°C° 0.8 mm 1 mps 748 mmHg 67%
    10:00 +24°C° 0.8 mm 1 mps 748 mmHg 65%
    11:00 +24°C° 0.9 mm 2 mps 748 mmHg 65%
    12:00 +25°C° 0.9 mm 2 mps 748 mmHg 64%
    13:00 +25°C° 0.9 mm 2 mps 748 mmHg 63%
    14:00 +26°C° 0.3 mm 2 mps 748 mmHg 62%
    15:00 +26°C° 0.3 mm 2 mps 748 mmHg 61%
    16:00 +26°C° 0.3 mm 2 mps 748 mmHg 60%
    17:00 +25°C° 0.1 mm 2 mps 748 mmHg 66%
    18:00 +24°C° 0.1 mm 2 mps 748 mmHg 71%
    19:00 +23°C° 0.1 mm 2 mps 748 mmHg 77%
    20:00 +21°C° 0.1 mm 2 mps 748 mmHg 80%
    21:00 +21°C° 0.1 mm 1 mps 749 mmHg 83%
    22:00 +20°C° 0.1 mm 1 mps 749 mmHg 87%
    23:00 +19°C° 0 mm 1 mps 749 mmHg 87%

    Tomorrow, 19 July, Friday

    Time Temperature Precipitation Wind Pressure Humidity
    00:00 +19°C° 0 mm 1 mps 749 mmHg 87%
    01:00 +19°C° 0 mm 1 mps 750 mmHg 87%
    02:00 +19°C° 0 mm 1 mps 750 mmHg 88%
    03:00 +18°C° 0 mm 1 mps 750 mmHg 88%
    04:00 +18°C° 0 mm 1 mps 750 mmHg 89%
    05:00 +20°C° 0 mm 1 mps 750 mmHg 85%
    06:00 +19°C° 0 mm 0 mps 750 mmHg 81%
    07:00 +20°C° 0 mm 0 mps 751 mmHg 77%
    08:00 +24°C° 0.3 mm 1 mps 751 mmHg 71%
    09:00 +25°C° 0.3 mm 2 mps 751 mmHg 65%
    10:00 +27°C° 0.3 mm 2 mps 751 mmHg 59%
    11:00 +28°C° 0.1 mm 2 mps 751 mmHg 54%
    12:00 +29°C° 0.1 mm 2 mps 751 mmHg 48%
    13:00 +30°C° 0.1 mm 2 mps 750 mmHg 43%
    14:00 +30°C° 0 mm 2 mps 750 mmHg 44%
    15:00 +29°C° 0 mm 2 mps 750 mmHg 44%
    16:00 +29°C° 0 mm 2 mps 750 mmHg 45%
    17:00 +28°C° 0 mm 2 mps 750 mmHg 51%
    18:00 +27°C° 0 mm 1 mps 750 mmHg 57%
    19:00 +25°C° 0 mm 1 mps 750 mmHg 63%
    20:00 +24°C° 0.1 mm 1 mps 750 mmHg 66%
    21:00 +23°C° 0.1 mm 1 mps 751 mmHg 69%
    22:00 +22°C° 0.1 mm 1 mps 751 mmHg 73%
    23:00 +21°C° 0.1 mm 1 mps 751 mmHg 75%

    Day after tomorrow, 20 July, Saturday

    Time Temperature Precipitation Wind Pressure Humidity
    00:00 +21°C° 0.1 mm 1 mps 751 mmHg 77%
    01:00 +18°C° 0.1 mm 0 mps 751 mmHg 80%
    02:00 +20°C° 0.1 mm 1 mps 751 mmHg 80%
    03:00 +20°C° 0.1 mm 1 mps 751 mmHg 81%
    04:00 +20°C° 0.1 mm 1 mps 752 mmHg 82%
    05:00 +21°C° 0 mm 1 mps 752 mmHg 78%
    06:00 +22°C° 0 mm 1 mps 752 mmHg 74%
    07:00 +24°C° 0 mm 1 mps 752 mmHg 71%
    08:00 +25°C° 0 mm 2 mps 752 mmHg 65%
    09:00 +27°C° 0 mm 2 mps 753 mmHg 59%
    10:00 +29°C° 0 mm 3 mps 753 mmHg 53%
    11:00 +30°C° 0 mm 3 mps 753 mmHg 51%
    12:00 +30°C° 0 mm 4 mps 752 mmHg 49%
    13:00 +32°C° 0 mm 4 mps 752 mmHg 46%
    14:00 +32°C° 0 mm 4 mps 752 mmHg 47%
    15:00 +32°C° 0 mm 4 mps 752 mmHg 48%
    16:00 +32°C° 0 mm 4 mps 751 mmHg 49%
    17:00 +30°C° 0 mm 3 mps 751 mmHg 56%
    18:00 +28°C° 0 mm 3 mps 751 mmHg 63%
    19:00 +26°C° 0 mm 3 mps 752 mmHg 70%
    20:00 +25°C° 0 mm 2 mps 752 mmHg 72%
    21:00 +24°C° 0 mm 2 mps 752 mmHg 73%
    22:00 +23°C° 0 mm 2 mps 752 mmHg 75%
    23:00 +23°C° 0 mm 2 mps 752 mmHg 75%

    21 July, Sunday

    Time Temperature Precipitation Wind Pressure Humidity
    00:00 +21°C° 0 mm 2 mps 752 mmHg 75%
    01:00 +21°C° 0 mm 2 mps 752 mmHg 76%
    02:00 +22°C° 0 mm 1 mps 752 mmHg 76%
    03:00 +21°C° 0 mm 1 mps 752 mmHg 76%
    04:00 +21°C° 0 mm 1 mps 752 mmHg 77%
    05:00 +22°C° 0 mm 1 mps 753 mmHg 74%
    06:00 +23°C° 0 mm 1 mps 753 mmHg 71%
    07:00 +25°C° 0 mm 2 mps 753 mmHg 68%
    08:00 +26°C° 0 mm 2 mps 753 mmHg 63%
    09:00 +28°C° 0 mm 2 mps 754 mmHg 58%
    10:00 +30°C° 0 mm 3 mps 754 mmHg 52%
    11:00 +31°C° 0 mm 3 mps 754 mmHg 48%
    12:00 +33°C° 0 mm 3 mps 753 mmHg 44%
    13:00 +34°C° 0 mm 3 mps 753 mmHg 41%
    14:00 +34°C° 0 mm 3 mps 753 mmHg 41%
    15:00 +34°C° 0 mm 2 mps 753 mmHg 42%
    16:00 +34°C° 0 mm 2 mps 753 mmHg 42%
    17:00 +31°C° 0 mm 2 mps 753 mmHg 48%
    18:00 +29°C° 0 mm 2 mps 753 mmHg 54%
    19:00 +28°C° 0 mm 1 mps 753 mmHg 60%
    20:00 +27°C° 0 mm 1 mps 753 mmHg 61%
    21:00 +26°C° 0 mm 1 mps 754 mmHg 62%
    22:00 +24°C° 0 mm 2 mps 754 mmHg 63%
    23:00 +24°C° 0 mm 2 mps 754 mmHg 66%

    22 July, Monday

    Time Temperature Precipitation Wind Pressure Humidity
    00:00 +24°C° 0 mm 2 mps 754 mmHg 69%
    01:00 +23°C° 0 mm 2 mps 754 mmHg 72%
    02:00 +23°C° 0 mm 2 mps 754 mmHg 75%
    03:00 +21°C° 0 mm 2 mps 754 mmHg 77%
    04:00 +21°C° 0 mm 2 mps 754 mmHg 79%
    05:00 +23°C° 0 mm 2 mps 755 mmHg 76%
    06:00 +24°C° 0 mm 3 mps 755 mmHg 73%
    07:00 +26°C° 0 mm 3 mps 755 mmHg 69%
    08:00 +27°C° 0 mm 3 mps 755 mmHg 62%
    09:00 +29°C° 0 mm 4 mps 756 mmHg 54%
    10:00 +32°C° 0 mm 4 mps 756 mmHg 47%
    11:00 +32°C° 0 mm 4 mps 755 mmHg 45%
    12:00 +33°C° 0 mm 4 mps 755 mmHg 44%
    13:00 +33°C° 0 mm 4 mps 755 mmHg 43%
    14:00 +33°C° 0 mm 5 mps 755 mmHg 42%
    15:00 +33°C° 0 mm 5 mps 755 mmHg 42%
    16:00 +33°C° 0 mm 5 mps 754 mmHg 42%
    17:00 +30°C° 0 mm 4 mps 754 mmHg 48%
    18:00 +28°C° 0 mm 4 mps 754 mmHg 54%
    19:00 +26°C° 0 mm 3 mps 754 mmHg 60%
    20:00 +25°C° 0 mm 3 mps 754 mmHg 60%
    21:00 +24°C° 0 mm 3 mps 755 mmHg 61%
    22:00 +22°C° 0 mm 3 mps 755 mmHg 61%
    23:00 +22°C° 0 mm 3 mps 755 mmHg 64%

    23 July, Tuesday

    Time Temperature Precipitation Wind Pressure Humidity
    00:00 +21°C° 0 mm 3 mps 755 mmHg 67%
    01:00 +20°C° 0 mm 3 mps 755 mmHg 69%
    02:00 +20°C° 0 mm 3 mps 755 mmHg 72%
    03:00 +20°C° 0 mm 3 mps 754 mmHg 74%
    04:00 +19°C° 0 mm 3 mps 754 mmHg 76%
    05:00 +21°C° 0 mm 3 mps 754 mmHg 73%
    06:00 +22°C° 0 mm 3 mps 755 mmHg 69%
    07:00 +24°C° 0 mm 2 mps 755 mmHg 66%
    08:00 +26°C° 0 mm 2 mps 755 mmHg 60%
    09:00 +27°C° 0 mm 2 mps 755 mmHg 54%
    10:00 +28°C° 0 mm 2 mps 755 mmHg 49%
    11:00 +29°C° 0 mm 3 mps 754 mmHg 46%
    12:00 +30°C° 0 mm 3 mps 754 mmHg 42%
    13:00 +30°C° 0 mm 4 mps 754 mmHg 39%
    14:00 +30°C° 0 mm 4 mps 753 mmHg 41%
    15:00 +30°C° 0 mm 4 mps 753 mmHg 42%
    16:00 +30°C° 0 mm 4 mps 753 mmHg 43%
    17:00 +28°C° 0 mm 4 mps 752 mmHg 49%
    18:00 +27°C° 0 mm 3 mps 752 mmHg 55%
    19:00 +26°C° 0 mm 3 mps 752 mmHg 62%
    20:00 +25°C° 0 mm 3 mps 752 mmHg 63%
    21:00 +22°C° 0 mm 3 mps 753 mmHg 63%
    22:00 +21°C° 0 mm 3 mps 753 mmHg 64%
    23:00 +21°C° 0 mm 3 mps 753 mmHg 66%
    Show more